Time,TemperatureF,DewpointF,PressureIn,WindDirection,WindDirectionDegrees,WindSpeedMPH,WindSpeedGustMPH,Humidity,HourlyPrecipIn,Conditions,Clouds,dailyrainin,SoftwareType,DateUTC
2013-02-10 00:04:00,73.0,69.0,30.11,ESE,106,0.0,7.7,89,0.00,,,0.00,WXETH v1.08,2013-02-10 04:04:00,
2013-02-10 00:09:00,73.0,69.0,30.11,East,90,3.7,3.7,89,0.00,,,0.00,WXETH v1.08,2013-02-10 04:09:00,
2013-02-10 00:14:00,72.9,69.0,30.11,NE,36,0.0,7.8,89,0.00,,,0.00,WXETH v1.08,2013-02-10 04:14:00,
2013-02-10 00:19:00,73.0,69.0,30.11,SE,126,3.4,7.2,89,0.00,,,0.00,WXETH v1.08,2013-02-10 04:19:00,
2013-02-10 00:24:00,72.9,69.0,30.11,East,98,4.1,5.7,89,0.00,,,0.00,WXETH v1.08,2013-02-10 04:24:00,
2013-02-10 00:29:00,72.8,69.0,30.12,ENE,66,1.8,7.0,89,0.00,,,0.00,WXETH v1.08,2013-02-10 04:29:00,
2013-02-10 00:34:00,73.0,69.0,30.12,ESE,104,0.0,3.0,89,0.00,,,0.00,WXETH v1.08,2013-02-10 04:34:00,
2013-02-10 00:39:00,72.9,69.0,30.12,East,80,0.0,4.4,89,0.00,,,0.00,WXETH v1.08,2013-02-10 04:39:00,
2013-02-10 00:44:00,72.8,69.0,30.12,NE,45,0.0,4.3,89,0.00,,,0.00,WXETH v1.08,2013-02-10 04:44:00,
2013-02-10 00:49:00,72.7,69.0,30.12,ENE,59,0.0,4.2,89,0.00,,,0.00,WXETH v1.08,2013-02-10 04:49:00,
2013-02-10 00:54:00,72.6,69.0,30.12,ENE,74,1.1,3.7,90,0.00,,,0.00,WXETH v1.08,2013-02-10 04:54:00,
2013-02-10 00:59:00,72.5,69.0,30.11,ESE,116,0.0,1.9,90,0.00,,,0.00,WXETH v1.08,2013-02-10 04:59:00,
2013-02-10 01:00:00,72.5,69.0,30.11,ESE,116,0.0,1.0,90,0.00,,,0.00,WXETH v1.08,2013-02-10 05:00:00,
2013-02-10 01:05:00,72.3,68.7,30.11,ENE,67,0.0,3.6,90,0.00,,,0.00,WXETH v1.08,2013-02-10 05:05:00,
2013-02-10 01:10:00,72.4,68.7,30.11,East,99,0.0,3.4,90,0.00,,,0.00,WXETH v1.08,2013-02-10 05:10:00,
2013-02-10 01:15:00,72.2,68.7,30.11,East,99,0.0,0.0,90,0.00,,,0.00,WXETH v1.08,2013-02-10 05:15:00,
2013-02-10 01:20:00,72.1,69.0,30.11,ENE,74,0.8,1.6,91,0.00,,,0.00,WXETH v1.08,2013-02-10 05:20:00,
2013-02-10 01:25:00,72.1,69.0,30.11,East,99,0.0,5.3,91,0.00,,,0.00,WXETH v1.08,2013-02-10 05:25:00,
2013-02-10 01:30:00,72.0,69.0,30.11,NE,56,0.0,4.2,91,0.00,,,0.00,WXETH v1.08,2013-02-10 05:30:00,
2013-02-10 01:35:00,72.0,69.0,30.11,East,85,0.0,5.4,91,0.00,,,0.00,WXETH v1.08,2013-02-10 05:35:00,
2013-02-10 01:40:00,71.9,69.0,30.11,SE,140,0.0,1.7,91,0.00,,,0.00,WXETH v1.08,2013-02-10 05:40:00,
2013-02-10 01:45:00,71.9,69.0,30.11,East,101,0.0,2.1,91,0.00,,,0.00,WXETH v1.08,2013-02-10 05:45:00,
2013-02-10 01:50:00,71.9,69.0,30.11,East,101,0.0,0.0,91,0.00,,,0.00,WXETH v1.08,2013-02-10 05:50:00,
2013-02-10 01:55:00,71.7,68.7,30.10,East,101,0.0,0.0,91,0.00,,,0.00,WXETH v1.08,2013-02-10 05:55:00,
2013-02-10 02:00:00,71.7,68.7,30.10,ESE,111,0.4,0.8,91,0.00,,,0.00,WXETH v1.08,2013-02-10 06:00:00,
2013-02-10 02:05:00,71.8,69.0,30.10,ENE,75,0.0,2.9,91,0.00,,,0.00,WXETH v1.08,2013-02-10 06:05:00,
2013-02-10 02:10:00,71.7,68.7,30.10,ENE,74,0.0,3.9,91,0.00,,,0.00,WXETH v1.08,2013-02-10 06:10:00,
2013-02-10 02:15:00,71.6,68.7,30.10,ENE,74,0.0,1.4,91,0.00,,,0.00,WXETH v1.08,2013-02-10 06:15:00,
2013-02-10 02:20:00,71.6,69.0,30.10,ESE,111,1.3,1.8,92,0.00,,,0.00,WXETH v1.08,2013-02-10 06:20:00,
2013-02-10 02:25:00,71.5,68.7,30.10,ESE,105,3.4,5.4,92,0.00,,,0.00,WXETH v1.08,2013-02-10 06:25:00,
2013-02-10 02:30:00,71.4,68.7,30.10,East,81,0.0,4.0,92,0.00,,,0.00,WXETH v1.08,2013-02-10 06:30:00,
2013-02-10 02:35:00,71.4,68.7,30.10,East,87,0.0,2.1,92,0.00,,,0.00,WXETH v1.08,2013-02-10 06:35:00,
2013-02-10 02:40:00,71.3,68.7,30.10,South,178,1.9,2.9,92,0.00,,,0.00,WXETH v1.08,2013-02-10 06:40:00,
2013-02-10 02:45:00,70.9,68.1,30.10,SE,142,0.0,2.1,92,0.00,,,0.00,WXETH v1.08,2013-02-10 06:45:00,
2013-02-10 02:50:00,70.7,68.5,30.09,SE,142,0.0,0.0,93,0.00,,,0.00,WXETH v1.08,2013-02-10 06:50:00,
2013-02-10 02:55:00,70.5,68.1,30.09,SE,142,0.0,0.0,93,0.00,,,0.00,WXETH v1.08,2013-02-10 06:55:00,
2013-02-10 03:00:00,70.4,68.1,30.09,SE,142,0.0,0.0,93,0.00,,,0.00,WXETH v1.08,2013-02-10 07:00:00,
2013-02-10 03:05:00,70.5,68.1,30.09,SE,142,0.0,0.0,93,0.00,,,0.00,WXETH v1.08,2013-02-10 07:05:00,
2013-02-10 03:10:00,70.2,67.8,30.09,SE,142,0.0,0.0,93,0.00,,,0.00,WXETH v1.08,2013-02-10 07:10:00,
2013-02-10 03:15:00,70.1,67.8,30.09,SE,142,0.0,0.3,94,0.00,,,0.00,WXETH v1.08,2013-02-10 07:15:00,
2013-02-10 03:20:00,69.9,67.8,30.09,SE,142,0.0,0.0,94,0.00,,,0.00,WXETH v1.08,2013-02-10 07:20:00,
2013-02-10 03:25:00,70.1,67.8,30.08,East,80,0.0,4.2,94,0.00,,,0.00,WXETH v1.08,2013-02-10 07:25:00,
2013-02-10 03:30:00,70.2,68.1,30.08,East,80,0.0,0.0,94,0.00,,,0.00,WXETH v1.08,2013-02-10 07:30:00,
2013-02-10 03:35:00,70.4,68.5,30.08,NNE,28,0.0,4.8,94,0.00,,,0.00,WXETH v1.08,2013-02-10 07:35:00,
2013-02-10 03:40:00,70.5,68.5,30.08,East,91,0.0,4.3,94,0.00,,,0.00,WXETH v1.08,2013-02-10 07:40:00,
2013-02-10 03:45:00,70.3,68.1,30.09,SSE,158,1.9,3.7,94,0.00,,,0.00,WXETH v1.08,2013-02-10 07:45:00,
2013-02-10 03:50:00,70.1,67.8,30.09,SE,127,0.0,2.8,94,0.00,,,0.00,WXETH v1.08,2013-02-10 07:50:00,
2013-02-10 03:55:00,69.7,67.6,30.09,SE,127,0.0,0.0,94,0.00,,,0.00,WXETH v1.08,2013-02-10 07:55:00,
2013-02-10 04:00:00,69.5,67.6,30.09,SE,127,0.0,0.0,94,0.00,,,0.00,WXETH v1.08,2013-02-10 08:00:00,
2013-02-10 04:05:00,69.5,67.8,30.08,SE,127,0.0,0.0,95,0.00,,,0.00,WXETH v1.08,2013-02-10 08:05:00,
2013-02-10 04:10:00,69.4,67.6,30.08,SE,130,0.0,1.2,95,0.00,,,0.00,WXETH v1.08,2013-02-10 08:10:00,
2013-02-10 04:15:00,69.5,67.8,30.08,SE,130,0.0,0.0,95,0.00,,,0.00,WXETH v1.08,2013-02-10 08:15:00,
2013-02-10 04:20:00,69.5,67.8,30.08,SE,130,0.0,0.0,95,0.00,,,0.00,WXETH v1.08,2013-02-10 08:20:00,
2013-02-10 04:25:00,69.4,67.6,30.08,SE,130,0.0,0.0,95,0.00,,,0.00,WXETH v1.08,2013-02-10 08:25:00,
2013-02-10 04:30:00,69.5,67.8,30.08,SE,130,0.0,0.0,95,0.00,,,0.00,WXETH v1.08,2013-02-10 08:30:00,
2013-02-10 04:35:00,69.3,67.6,30.08,SE,130,0.0,0.0,95,0.00,,,0.00,WXETH v1.08,2013-02-10 08:35:00,
2013-02-10 04:40:00,69.0,67.2,30.08,SE,130,0.0,0.0,95,0.00,,,0.00,WXETH v1.08,2013-02-10 08:40:00,
2013-02-10 04:45:00,68.9,67.2,30.08,SE,130,0.0,0.0,95,0.00,,,0.00,WXETH v1.08,2013-02-10 08:45:00,
2013-02-10 04:50:00,68.7,66.7,30.08,ESE,106,0.0,3.9,95,0.00,,,0.00,WXETH v1.08,2013-02-10 08:50:00,
2013-02-10 04:55:00,68.4,66.7,30.08,ESE,106,0.0,0.0,95,0.00,,,0.00,WXETH v1.08,2013-02-10 08:55:00,
2013-02-10 05:00:00,68.4,66.7,30.08,ESE,106,0.0,0.0,95,0.00,,,0.00,WXETH v1.08,2013-02-10 09:00:00,
2013-02-10 05:05:00,68.4,66.7,30.08,ESE,106,0.0,0.0,95,0.00,,,0.00,WXETH v1.08,2013-02-10 09:05:00,
2013-02-10 05:10:00,68.4,66.9,30.09,SE,133,0.0,2.4,96,0.00,,,0.00,WXETH v1.08,2013-02-10 09:10:00,
2013-02-10 05:15:00,68.4,66.9,30.09,SE,133,0.0,0.0,96,0.00,,,0.00,WXETH v1.08,2013-02-10 09:15:00,
2013-02-10 05:20:00,68.4,66.9,30.09,SE,133,0.0,0.0,96,0.00,,,0.00,WXETH v1.08,2013-02-10 09:20:00,
2013-02-10 05:25:00,68.4,66.9,30.09,SE,133,0.0,0.0,96,0.00,,,0.00,WXETH v1.08,2013-02-10 09:25:00,
2013-02-10 05:30:00,68.4,66.9,30.09,East,101,0.0,1.3,96,0.00,,,0.00,WXETH v1.08,2013-02-10 09:30:00,
2013-02-10 05:35:00,68.4,66.9,30.09,SE,140,0.0,3.4,96,0.00,,,0.00,WXETH v1.08,2013-02-10 09:35:00,
2013-02-10 05:40:00,68.4,66.9,30.09,ENE,67,0.0,1.1,96,0.00,,,0.00,WXETH v1.08,2013-02-10 09:40:00,
2013-02-10 05:45:00,68.3,66.7,30.09,ENE,67,0.0,0.0,96,0.00,,,0.00,WXETH v1.08,2013-02-10 09:45:00,
2013-02-10 05:50:00,68.4,66.9,30.09,ESE,118,0.0,4.8,96,0.00,,,0.00,WXETH v1.08,2013-02-10 09:50:00,
2013-02-10 05:55:00,68.3,66.7,30.09,ESE,112,0.0,3.7,96,0.00,,,0.00,WXETH v1.08,2013-02-10 09:55:00,
2013-02-10 06:00:00,68.4,66.9,30.09,ENE,68,0.0,2.2,96,0.00,,,0.00,WXETH v1.08,2013-02-10 10:00:00,
2013-02-10 06:05:00,68.3,66.7,30.09,NE,53,0.0,2.2,96,0.00,,,0.00,WXETH v1.08,2013-02-10 10:05:00,
2013-02-10 06:10:00,68.3,66.7,30.09,SE,127,0.0,3.5,96,0.00,,,0.00,WXETH v1.08,2013-02-10 10:10:00,
2013-02-10 06:15:00,68.2,66.7,30.09,SE,127,0.0,0.0,96,0.00,,,0.00,WXETH v1.08,2013-02-10 10:15:00,
2013-02-10 06:20:00,68.4,66.9,30.09,SSE,150,0.8,0.8,96,0.00,,,0.00,WXETH v1.08,2013-02-10 10:20:00,
2013-02-10 06:25:00,68.3,66.7,30.10,ESE,123,1.2,2.6,96,0.00,,,0.00,WXETH v1.08,2013-02-10 10:25:00,
2013-02-10 06:30:00,68.3,66.7,30.10,NE,37,0.0,3.1,96,0.00,,,0.00,WXETH v1.08,2013-02-10 10:30:00,
2013-02-10 06:35:00,68.7,66.9,30.10,NE,49,0.7,6.5,96,0.00,,,0.00,WXETH v1.08,2013-02-10 10:35:00,
2013-02-10 06:40:00,69.2,67.6,30.10,East,94,1.4,6.0,96,0.00,,,0.00,WXETH v1.08,2013-02-10 10:40:00,
2013-02-10 06:45:00,69.4,67.6,30.10,ENE,61,4.4,5.0,95,0.00,,,0.00,WXETH v1.08,2013-02-10 10:45:00,
2013-02-10 06:50:00,69.8,68.1,30.10,East,84,3.7,6.7,95,0.00,,,0.00,WXETH v1.08,2013-02-10 10:50:00,
2013-02-10 06:55:00,70.2,68.5,30.11,NNE,32,4.4,5.9,95,0.00,,,0.00,WXETH v1.08,2013-02-10 10:55:00,
2013-02-10 07:00:00,70.3,68.1,30.11,ENE,78,0.4,5.4,94,0.00,,,0.00,WXETH v1.08,2013-02-10 11:00:00,
2013-02-10 07:05:00,70.4,68.5,30.11,ESE,111,4.2,5.9,94,0.00,,,0.00,WXETH v1.08,2013-02-10 11:05:00,
2013-02-10 07:10:00,70.5,68.5,30.11,East,94,1.8,5.2,94,0.00,,,0.00,WXETH v1.08,2013-02-10 11:10:00,
2013-02-10 07:15:00,70.6,68.1,30.11,East,80,0.8,4.9,93,0.00,,,0.00,WXETH v1.08,2013-02-10 11:15:00,
2013-02-10 07:20:00,70.5,68.1,30.12,East,94,1.8,4.0,93,0.00,,,0.00,WXETH v1.08,2013-02-10 11:20:00,
2013-02-10 07:25:00,70.8,68.5,30.12,ESE,118,1.4,5.6,93,0.00,,,0.00,WXETH v1.08,2013-02-10 11:25:00,
2013-02-10 07:30:00,70.9,68.1,30.12,ENE,74,3.9,6.1,92,0.00,,,0.00,WXETH v1.08,2013-02-10 11:30:00,
2013-02-10 07:35:00,71.2,68.5,30.12,NE,45,1.1,7.5,92,0.00,,,0.00,WXETH v1.08,2013-02-10 11:35:00,
2013-02-10 07:40:00,71.4,68.7,30.12,ESE,109,3.1,5.9,92,0.00,,,0.00,WXETH v1.08,2013-02-10 11:40:00,
2013-02-10 07:45:00,71.5,68.7,30.12,East,82,1.1,4.6,92,0.00,,,0.00,WXETH v1.08,2013-02-10 11:45:00,
2013-02-10 07:50:00,71.8,69.2,30.13,NE,47,0.0,5.8,92,0.00,,,0.00,WXETH v1.08,2013-02-10 11:50:00,
2013-02-10 07:55:00,72.1,69.0,30.13,ESE,115,1.8,7.7,91,0.00,,,0.00,WXETH v1.08,2013-02-10 11:55:00,
2013-02-10 08:00:00,72.5,69.6,30.13,East,95,0.0,3.7,91,0.00,,,0.00,WXETH v1.08,2013-02-10 12:00:00,
2013-02-10 08:05:00,73.0,69.2,30.13,East,95,0.0,0.0,90,0.00,,,0.00,WXETH v1.08,2013-02-10 12:05:00,
2013-02-10 08:10:00,73.3,68.7,30.13,South,174,2.7,3.6,87,0.00,,,0.00,WXETH v1.08,2013-02-10 12:10:00,
2013-02-10 08:15:00,73.2,69.0,30.13,ESE,123,0.0,4.2,88,0.00,,,0.00,WXETH v1.08,2013-02-10 12:15:00,
2013-02-10 08:20:00,73.3,68.7,30.14,South,191,1.4,4.3,87,0.00,,,0.00,WXETH v1.08,2013-02-10 12:20:00,
2013-02-10 08:25:00,73.2,69.0,30.14,SE,125,0.0,3.2,88,0.00,,,0.00,WXETH v1.08,2013-02-10 12:25:00,
2013-02-10 08:30:00,73.6,69.0,30.14,SSE,156,3.0,4.7,86,0.00,,,0.00,WXETH v1.08,2013-02-10 12:30:00,
2013-02-10 08:35:00,73.3,68.5,30.14,SSE,161,2.2,5.0,86,0.00,,,0.00,WXETH v1.08,2013-02-10 12:35:00,
2013-02-10 08:40:00,73.7,69.2,30.14,ESE,123,0.0,2.7,87,0.00,,,0.00,WXETH v1.08,2013-02-10 12:40:00,
2013-02-10 08:45:00,74.2,69.6,30.15,SSW,201,0.0,2.0,87,0.00,,,0.00,WXETH v1.08,2013-02-10 12:45:00,
2013-02-10 08:50:00,74.7,69.9,30.15,SSE,158,4.6,4.6,86,0.00,,,0.00,WXETH v1.08,2013-02-10 12:50:00,
2013-02-10 08:55:00,74.6,69.6,30.15,SSW,203,2.3,7.0,85,0.00,,,0.00,WXETH v1.08,2013-02-10 12:55:00,
2013-02-10 09:00:00,75.1,69.9,30.15,South,174,2.3,2.9,85,0.00,,,0.00,WXETH v1.08,2013-02-10 13:00:00,
2013-02-10 09:05:00,75.5,69.6,30.15,SSW,198,4.5,4.9,83,0.00,,,0.00,WXETH v1.08,2013-02-10 13:05:00,
2013-02-10 09:10:00,75.9,69.6,30.15,SW,217,1.5,6.8,82,0.00,,,0.00,WXETH v1.08,2013-02-10 13:10:00,
2013-02-10 09:15:00,76.4,70.1,30.15,SSW,206,3.2,7.2,82,0.00,,,0.00,WXETH v1.08,2013-02-10 13:15:00,
2013-02-10 09:20:00,76.9,69.2,30.15,SSE,167,4.0,10.4,79,0.00,,,0.00,WXETH v1.08,2013-02-10 13:20:00,
2013-02-10 09:25:00,77.3,69.6,30.15,SE,140,3.4,9.0,78,0.00,,,0.00,WXETH v1.08,2013-02-10 13:25:00,
2013-02-10 09:30:00,77.9,70.1,30.15,SSE,168,1.9,6.8,78,0.00,,,0.00,WXETH v1.08,2013-02-10 13:30:00,
2013-02-10 09:35:00,78.3,69.9,30.16,SSE,154,4.1,7.7,76,0.00,,,0.00,WXETH v1.08,2013-02-10 13:35:00,
2013-02-10 09:40:00,78.5,70.5,30.16,South,181,4.4,8.4,77,0.00,,,0.00,WXETH v1.08,2013-02-10 13:40:00,
2013-02-10 09:45:00,78.3,69.2,30.16,SE,135,3.5,12.4,75,0.00,,,0.00,WXETH v1.08,2013-02-10 13:45:00,
2013-02-10 09:50:00,78.1,69.2,30.16,ESE,113,3.8,12.9,75,0.00,,,0.00,WXETH v1.08,2013-02-10 13:50:00,
2013-02-10 09:55:00,78.5,69.6,30.16,ESE,119,1.3,7.9,75,0.00,,,0.00,WXETH v1.08,2013-02-10 13:55:00,
2013-02-10 10:00:00,79.0,69.0,30.16,SSE,150,5.2,8.1,72,0.00,,,0.00,WXETH v1.08,2013-02-10 14:00:00,
2013-02-10 10:05:00,79.0,69.0,30.16,SE,143,1.9,12.4,72,0.00,,,0.00,WXETH v1.08,2013-02-10 14:05:00,
2013-02-10 10:10:00,79.2,68.1,30.16,ESE,116,6.7,9.5,70,0.00,,,0.00,WXETH v1.08,2013-02-10 14:10:00,
2013-02-10 10:15:00,79.3,67.2,30.16,South,181,9.5,13.9,68,0.00,,,0.00,WXETH v1.08,2013-02-10 14:15:00,
2013-02-10 10:20:00,79.4,69.0,30.16,ESE,109,1.3,13.2,71,0.00,,,0.00,WXETH v1.08,2013-02-10 14:20:00,
2013-02-10 10:25:00,79.7,68.5,30.16,SSE,150,7.5,10.0,69,0.00,,,0.00,WXETH v1.08,2013-02-10 14:25:00,
2013-02-10 10:30:00,79.9,68.7,30.16,ENE,74,5.9,9.2,69,0.00,,,0.00,WXETH v1.08,2013-02-10 14:30:00,
2013-02-10 10:35:00,79.9,67.2,30.16,East,97,2.7,14.5,66,0.00,,,0.00,WXETH v1.08,2013-02-10 14:35:00,
2013-02-10 10:40:00,79.9,67.2,30.15,SSE,151,2.9,12.0,66,0.00,,,0.00,WXETH v1.08,2013-02-10 14:40:00,
2013-02-10 10:45:00,80.2,66.9,30.16,ESE,122,4.1,14.2,65,0.00,,,0.00,WXETH v1.08,2013-02-10 14:45:00,
2013-02-10 10:50:00,80.3,67.2,30.15,ESE,108,4.7,12.3,65,0.00,,,0.00,WXETH v1.08,2013-02-10 14:50:00,
2013-02-10 10:55:00,80.3,67.2,30.15,SE,135,5.0,17.4,65,0.00,,,0.00,WXETH v1.08,2013-02-10 14:55:00,
2013-02-10 11:00:00,80.4,66.7,30.15,ENE,71,4.1,10.3,64,0.00,,,0.00,WXETH v1.08,2013-02-10 15:00:00,
2013-02-10 11:05:00,80.3,67.2,30.15,ESE,109,5.3,13.6,65,0.00,,,0.00,WXETH v1.08,2013-02-10 15:05:00,
2013-02-10 11:10:00,80.3,66.7,30.15,NNE,25,7.5,13.3,64,0.00,,,0.00,WXETH v1.08,2013-02-10 15:10:00,
2013-02-10 11:15:00,80.5,66.3,30.15,East,81,1.5,12.4,63,0.00,,,0.00,WXETH v1.08,2013-02-10 15:15:00,
2013-02-10 11:20:00,80.7,66.2,30.15,ESE,105,5.4,9.8,62,0.00,,,0.00,WXETH v1.08,2013-02-10 15:20:00,
2013-02-10 11:25:00,80.7,65.8,30.15,SSW,196,2.8,12.1,61,0.00,,,0.00,WXETH v1.08,2013-02-10 15:25:00,
2013-02-10 11:30:00,80.8,66.2,30.15,SW,215,1.3,10.9,62,0.00,,,0.00,WXETH v1.08,2013-02-10 15:30:00,
2013-02-10 11:35:00,81.2,66.3,30.15,South,177,4.9,11.0,61,0.00,,,0.00,WXETH v1.08,2013-02-10 15:35:00,
2013-02-10 11:40:00,81.5,66.9,30.15,SSW,199,8.0,11.0,62,0.00,,,0.00,WXETH v1.08,2013-02-10 15:40:00,
2013-02-10 11:45:00,81.3,66.7,30.15,ENE,77,10.4,13.4,62,0.00,,,0.00,WXETH v1.08,2013-02-10 15:45:00,
2013-02-10 11:50:00,80.8,66.9,30.15,ENE,74,3.7,12.1,64,0.00,,,0.00,WXETH v1.08,2013-02-10 15:50:00,
2013-02-10 11:55:00,80.5,67.2,30.14,East,84,11.4,14.0,65,0.00,,,0.00,WXETH v1.08,2013-02-10 15:55:00,
2013-02-10 12:00:00,80.3,68.1,30.15,SE,125,5.4,17.4,67,0.00,,,0.00,WXETH v1.08,2013-02-10 16:00:00,
2013-02-10 12:06:00,80.8,67.8,30.14,SSE,153,4.7,10.1,66,0.00,,,0.00,WXETH v1.08,2013-02-10 16:06:00,
2013-02-10 12:10:00,81.1,67.8,30.14,NNE,21,3.2,10.9,65,0.00,,,0.00,WXETH v1.08,2013-02-10 16:10:00,
2013-02-10 12:16:00,80.6,67.8,30.14,ESE,113,3.8,9.3,66,0.00,,,0.00,WXETH v1.08,2013-02-10 16:16:00,
2013-02-10 12:21:00,79.9,68.1,30.14,SE,130,10.6,12.3,68,0.00,,,0.00,WXETH v1.08,2013-02-10 16:21:00,
2013-02-10 12:26:00,80.2,67.8,30.13,East,90,7.5,14.9,67,0.00,,,0.00,WXETH v1.08,2013-02-10 16:26:00,
2013-02-10 12:31:00,81.0,67.8,30.13,NNW,347,1.6,12.8,65,0.00,,,0.00,WXETH v1.08,2013-02-10 16:31:00,
2013-02-10 12:36:00,80.8,67.8,30.13,NNE,25,9.2,15.1,66,0.00,,,0.00,WXETH v1.08,2013-02-10 16:36:00,
2013-02-10 12:41:00,80.4,68.5,30.13,North,354,0.6,9.8,68,0.00,,,0.00,WXETH v1.08,2013-02-10 16:41:00,
2013-02-10 12:46:00,80.4,67.6,30.12,ESE,109,1.8,11.1,66,0.00,,,0.00,WXETH v1.08,2013-02-10 16:46:00,
2013-02-10 12:51:00,81.3,68.5,30.12,East,94,1.8,8.9,66,0.00,,,0.00,WXETH v1.08,2013-02-10 16:51:00,
2013-02-10 12:56:00,81.6,67.6,30.12,SSE,160,3.4,10.0,63,0.00,,,0.00,WXETH v1.08,2013-02-10 16:56:00,
2013-02-10 13:01:00,81.6,67.6,30.12,South,178,4.9,10.0,63,0.00,,,0.00,WXETH v1.08,2013-02-10 17:01:00,
2013-02-10 13:06:00,81.1,67.2,30.12,SSW,206,1.9,15.3,64,0.00,,,0.00,WXETH v1.08,2013-02-10 17:06:00,
2013-02-10 13:11:00,81.4,67.2,30.12,SE,140,4.7,14.5,63,0.00,,,0.00,WXETH v1.08,2013-02-10 17:11:00,
2013-02-10 13:16:00,81.4,67.6,30.12,NE,46,2.0,9.2,64,0.00,,,0.00,WXETH v1.08,2013-02-10 17:16:00,
2013-02-10 13:21:00,81.1,67.8,30.12,ESE,111,5.0,14.4,65,0.00,,,0.00,WXETH v1.08,2013-02-10 17:21:00,
2013-02-10 13:26:00,81.1,68.7,30.11,NE,47,10.3,13.7,67,0.00,,,0.00,WXETH v1.08,2013-02-10 17:26:00,
2013-02-10 13:31:00,80.5,67.6,30.11,NE,52,5.7,15.7,66,0.00,,,0.00,WXETH v1.08,2013-02-10 17:31:00,
2013-02-10 13:36:00,80.9,68.5,30.11,East,95,0.9,12.2,67,0.00,,,0.00,WXETH v1.08,2013-02-10 17:36:00,
2013-02-10 13:41:00,81.2,68.5,30.11,ENE,70,4.7,13.2,66,0.00,,,0.00,WXETH v1.08,2013-02-10 17:41:00,
2013-02-10 13:46:00,81.7,69.2,30.10,SSE,167,4.7,11.6,67,0.00,,,0.00,WXETH v1.08,2013-02-10 17:46:00,
2013-02-10 13:51:00,81.3,68.5,30.10,ENE,74,3.9,12.4,66,0.00,,,0.00,WXETH v1.08,2013-02-10 17:51:00,
2013-02-10 13:56:00,81.0,68.1,30.10,East,88,8.0,10.3,66,0.00,,,0.00,WXETH v1.08,2013-02-10 17:56:00,
2013-02-10 14:01:00,81.2,69.0,30.10,West,277,4.1,11.9,67,0.00,,,0.00,WXETH v1.08,2013-02-10 18:01:00,
2013-02-10 14:06:00,81.1,68.7,30.10,ENE,70,8.8,12.9,67,0.00,,,0.00,WXETH v1.08,2013-02-10 18:06:00,
2013-02-10 14:11:00,81.5,68.5,30.09,SE,127,8.5,10.6,65,0.00,,,0.00,WXETH v1.08,2013-02-10 18:11:00,
2013-02-10 14:16:00,81.6,68.7,30.09,South,177,4.6,11.0,66,0.00,,,0.00,WXETH v1.08,2013-02-10 18:16:00,
2013-02-10 14:21:00,81.5,68.5,30.09,SE,130,5.0,13.9,65,0.00,,,0.00,WXETH v1.08,2013-02-10 18:21:00,
2013-02-10 14:26:00,81.3,69.0,30.09,SE,132,6.6,12.9,67,0.00,,,0.00,WXETH v1.08,2013-02-10 18:26:00,
2013-02-10 14:31:00,81.4,68.1,30.09,SSE,164,5.5,12.0,65,0.00,,,0.00,WXETH v1.08,2013-02-10 18:31:00,
2013-02-10 14:36:00,81.3,68.5,30.09,ESE,113,0.0,16.4,66,0.00,,,0.00,WXETH v1.08,2013-02-10 18:36:00,
2013-02-10 14:41:00,82.0,68.7,30.08,ENE,64,5.5,7.3,65,0.00,,,0.00,WXETH v1.08,2013-02-10 18:41:00,
2013-02-10 14:46:00,81.6,68.5,30.08,East,94,4.6,14.4,65,0.00,,,0.00,WXETH v1.08,2013-02-10 18:46:00,
2013-02-10 14:51:00,81.4,68.1,30.08,ESE,109,4.7,14.6,65,0.00,,,0.00,WXETH v1.08,2013-02-10 18:51:00,
2013-02-10 14:56:00,81.0,68.7,30.08,NE,36,5.2,16.2,67,0.00,,,0.00,WXETH v1.08,2013-02-10 18:56:00,
2013-02-10 15:01:00,81.1,68.1,30.08,East,98,5.3,15.4,66,0.00,,,0.00,WXETH v1.08,2013-02-10 19:01:00,
2013-02-10 15:06:00,81.0,68.7,30.08,ESE,115,4.1,12.5,67,0.00,,,0.00,WXETH v1.08,2013-02-10 19:06:00,
2013-02-10 15:11:00,81.2,69.0,30.08,South,178,4.9,11.4,67,0.00,,,0.00,WXETH v1.08,2013-02-10 19:11:00,
2013-02-10 15:16:00,81.4,68.1,30.07,South,174,2.2,8.8,65,0.00,,,0.00,WXETH v1.08,2013-02-10 19:16:00,
2013-02-10 15:21:00,81.7,68.7,30.07,East,88,5.1,11.5,66,0.00,,,0.00,WXETH v1.08,2013-02-10 19:21:00,
2013-02-10 15:26:00,81.3,68.5,30.07,SSE,163,1.1,14.8,66,0.00,,,0.00,WXETH v1.08,2013-02-10 19:26:00,
2013-02-10 15:31:00,81.1,68.1,30.07,North,358,3.3,10.4,66,0.00,,,0.00,WXETH v1.08,2013-02-10 19:31:00,
2013-02-10 15:36:00,81.0,69.0,30.07,ESE,109,7.3,13.0,68,0.00,,,0.00,WXETH v1.08,2013-02-10 19:36:00,
2013-02-10 15:41:00,80.5,68.5,30.07,NNE,16,5.7,14.7,68,0.00,,,0.00,WXETH v1.08,2013-02-10 19:41:00,
2013-02-10 15:46:00,80.6,69.2,30.07,SSW,209,2.4,10.2,69,0.00,,,0.00,WXETH v1.08,2013-02-10 19:46:00,
2013-02-10 15:52:00,80.5,68.5,30.07,SE,146,6.5,11.7,68,0.00,,,0.00,WXETH v1.08,2013-02-10 19:52:00,
2013-02-10 15:57:00,80.3,69.2,30.07,NNE,18,6.9,11.9,70,0.00,,,0.00,WXETH v1.08,2013-02-10 19:57:00,
2013-02-10 16:02:00,80.0,69.0,30.07,NNE,33,5.9,14.1,70,0.00,,,0.00,WXETH v1.08,2013-02-10 20:02:00,
2013-02-10 16:07:00,79.4,69.0,30.07,NNE,19,4.8,15.1,71,0.00,,,0.00,WXETH v1.08,2013-02-10 20:07:00,
2013-02-10 16:12:00,79.4,69.2,30.07,NE,40,4.1,9.7,72,0.00,,,0.00,WXETH v1.08,2013-02-10 20:12:00,
2013-02-10 16:17:00,80.0,69.6,30.07,East,87,7.8,9.6,71,0.00,,,0.00,WXETH v1.08,2013-02-10 20:17:00,
2013-02-10 16:22:00,79.8,68.7,30.07,ENE,64,4.2,15.2,70,0.00,,,0.00,WXETH v1.08,2013-02-10 20:22:00,
2013-02-10 16:27:00,79.8,68.7,30.07,SSE,160,3.8,9.5,70,0.00,,,0.00,WXETH v1.08,2013-02-10 20:27:00,
2013-02-10 16:32:00,79.7,68.5,30.07,East,98,5.0,12.1,69,0.00,,,0.00,WXETH v1.08,2013-02-10 20:32:00,
2013-02-10 16:37:00,79.7,68.7,30.07,NE,40,1.9,10.5,70,0.00,,,0.00,WXETH v1.08,2013-02-10 20:37:00,
2013-02-10 16:42:00,79.4,68.1,30.08,East,84,5.4,11.2,69,0.00,,,0.00,WXETH v1.08,2013-02-10 20:42:00,
2013-02-10 16:47:00,79.3,68.1,30.08,SE,130,5.5,10.9,70,0.00,,,0.00,WXETH v1.08,2013-02-10 20:47:00,
2013-02-10 16:52:00,79.3,68.1,30.08,SSE,154,1.4,11.3,70,0.00,,,0.00,WXETH v1.08,2013-02-10 20:52:00,
2013-02-10 16:57:00,79.3,68.1,30.08,SE,139,3.2,14.6,70,0.00,,,0.00,WXETH v1.08,2013-02-10 20:57:00,
2013-02-10 17:02:00,79.4,68.5,30.08,ESE,106,2.7,8.1,70,0.00,,,0.00,WXETH v1.08,2013-02-10 21:02:00,
2013-02-10 17:07:00,79.1,67.8,30.08,NNE,26,6.1,11.0,69,0.00,,,0.00,WXETH v1.08,2013-02-10 21:07:00,
2013-02-10 17:12:00,78.8,67.8,30.08,ESE,122,1.8,12.4,70,0.00,,,0.00,WXETH v1.08,2013-02-10 21:12:00,
2013-02-10 17:17:00,78.4,67.8,30.08,ENE,70,0.9,13.9,71,0.00,,,0.00,WXETH v1.08,2013-02-10 21:17:00,
2013-02-10 17:22:00,78.7,68.5,30.08,ESE,116,2.0,5.0,72,0.00,,,0.00,WXETH v1.08,2013-02-10 21:22:00,
2013-02-10 17:27:00,78.8,68.7,30.08,East,95,6.4,7.9,72,0.00,,,0.00,WXETH v1.08,2013-02-10 21:27:00,
2013-02-10 17:32:00,78.4,68.1,30.09,NNE,32,6.0,10.6,72,0.00,,,0.00,WXETH v1.08,2013-02-10 21:32:00,
2013-02-10 17:37:00,78.1,68.7,30.08,SE,125,4.6,10.0,73,0.00,,,0.00,WXETH v1.08,2013-02-10 21:37:00,
2013-02-10 17:42:00,78.0,68.7,30.09,ENE,63,0.0,8.3,74,0.00,,,0.00,WXETH v1.08,2013-02-10 21:42:00,
2013-02-10 17:47:00,78.0,68.5,30.09,ESE,113,2.0,7.2,73,0.00,,,0.00,WXETH v1.08,2013-02-10 21:47:00,
2013-02-10 17:52:00,77.7,68.1,30.09,East,81,3.7,9.6,73,0.00,,,0.00,WXETH v1.08,2013-02-10 21:52:00,
2013-02-10 17:57:00,77.7,68.5,30.09,SE,146,2.1,8.1,74,0.00,,,0.00,WXETH v1.08,2013-02-10 21:57:00,
2013-02-10 18:02:00,77.3,68.5,30.09,ESE,123,2.1,8.3,75,0.00,,,0.00,WXETH v1.08,2013-02-10 22:02:00,
2013-02-10 18:07:00,77.1,68.1,30.09,South,172,2.2,7.0,75,0.00,,,0.00,WXETH v1.08,2013-02-10 22:07:00,
2013-02-10 18:12:00,76.8,68.7,30.09,South,177,4.3,10.3,77,0.00,,,0.00,WXETH v1.08,2013-02-10 22:12:00,
2013-02-10 18:17:00,76.7,68.7,30.09,ESE,111,2.2,6.2,77,0.00,,,0.00,WXETH v1.08,2013-02-10 22:17:00,
2013-02-10 18:22:00,76.8,69.0,30.09,East,97,0.0,2.4,78,0.00,,,0.00,WXETH v1.08,2013-02-10 22:22:00,
2013-02-10 18:27:00,76.5,69.0,30.09,East,90,4.7,7.8,79,0.00,,,0.00,WXETH v1.08,2013-02-10 22:27:00,
2013-02-10 18:32:00,76.3,69.0,30.10,ENE,66,3.9,5.1,79,0.00,,,0.00,WXETH v1.08,2013-02-10 22:32:00,
2013-02-10 18:37:00,76.0,69.0,30.10,ESE,109,2.7,7.7,80,0.00,,,0.00,WXETH v1.08,2013-02-10 22:37:00,
2013-02-10 18:42:00,75.8,69.2,30.10,NE,43,0.0,3.1,81,0.00,,,0.00,WXETH v1.08,2013-02-10 22:42:00,
2013-02-10 18:47:00,75.6,69.0,30.10,SE,130,3.4,6.4,81,0.00,,,0.00,WXETH v1.08,2013-02-10 22:47:00,
2013-02-10 18:52:00,75.3,68.7,30.10,SE,130,4.0,5.7,81,0.00,,,0.00,WXETH v1.08,2013-02-10 22:52:00,
2013-02-10 18:57:00,75.1,68.7,30.10,East,88,0.7,4.5,82,0.00,,,0.00,WXETH v1.08,2013-02-10 22:57:00,
2013-02-10 19:03:00,75.0,68.7,30.10,NNW,348,0.0,6.3,82,0.00,,,0.00,WXETH v1.08,2013-02-10 23:03:00,
2013-02-10 19:08:00,75.1,68.7,30.10,SE,139,3.1,4.9,82,0.00,,,0.00,WXETH v1.08,2013-02-10 23:08:00,
2013-02-10 19:13:00,75.1,68.7,30.10,ESE,102,0.0,4.3,82,0.00,,,0.00,WXETH v1.08,2013-02-10 23:13:00,
2013-02-10 19:18:00,75.0,69.0,30.11,SSE,147,1.3,1.9,83,0.00,,,0.00,WXETH v1.08,2013-02-10 23:18:00,
2013-02-10 19:23:00,74.9,69.0,30.11,ENE,71,0.5,4.2,83,0.00,,,0.00,WXETH v1.08,2013-02-10 23:23:00,
2013-02-10 19:28:00,74.6,69.2,30.11,East,94,1.1,2.1,84,0.00,,,0.00,WXETH v1.08,2013-02-10 23:28:00,
2013-02-10 19:33:00,74.5,69.2,30.12,SE,144,2.2,3.6,84,0.00,,,0.00,WXETH v1.08,2013-02-10 23:33:00,
2013-02-10 19:38:00,74.4,69.0,30.12,NNE,30,1.8,3.7,84,0.00,,,0.00,WXETH v1.08,2013-02-10 23:38:00,
2013-02-10 19:43:00,74.3,69.0,30.12,NNE,28,2.1,4.5,84,0.00,,,0.00,WXETH v1.08,2013-02-10 23:43:00,
2013-02-10 19:48:00,74.1,68.7,30.12,East,91,1.5,6.1,84,0.00,,,0.00,WXETH v1.08,2013-02-10 23:48:00,
2013-02-10 19:53:00,74.3,69.0,30.13,East,87,2.9,6.4,84,0.00,,,0.00,WXETH v1.08,2013-02-10 23:53:00,
2013-02-10 19:58:00,74.3,69.2,30.13,East,98,0.0,5.4,85,0.00,,,0.00,WXETH v1.08,2013-02-10 23:58:00,
2013-02-10 20:03:00,74.2,69.0,30.13,NE,42,0.0,3.2,85,0.00,,,0.00,WXETH v1.08,2013-02-11 00:03:00,
2013-02-10 20:08:00,74.2,69.0,30.13,NE,42,0.0,0.0,85,0.00,,,0.00,WXETH v1.08,2013-02-11 00:08:00,
2013-02-10 20:13:00,74.3,69.2,30.13,ESE,120,2.1,3.9,85,0.00,,,0.00,WXETH v1.08,2013-02-11 00:13:00,
2013-02-10 20:18:00,74.0,69.0,30.13,ENE,67,0.0,3.0,85,0.00,,,0.00,WXETH v1.08,2013-02-11 00:18:00,
2013-02-10 20:23:00,74.2,69.2,30.13,ESE,115,0.0,3.9,86,0.00,,,0.00,WXETH v1.08,2013-02-11 00:23:00,
2013-02-10 20:28:00,74.0,69.2,30.13,ESE,118,0.0,0.8,86,0.00,,,0.00,WXETH v1.08,2013-02-11 00:28:00,
2013-02-10 20:33:00,74.0,69.2,30.13,ESE,104,0.0,1.3,86,0.00,,,0.00,WXETH v1.08,2013-02-11 00:33:00,
2013-02-10 20:38:00,73.9,69.0,30.13,NNE,15,0.0,0.6,86,0.00,,,0.00,WXETH v1.08,2013-02-11 00:38:00,
2013-02-10 20:43:00,73.9,69.2,30.13,SSE,158,2.1,5.0,87,0.00,,,0.00,WXETH v1.08,2013-02-11 00:43:00,
2013-02-10 20:48:00,73.7,69.0,30.13,NE,43,2.7,3.1,86,0.00,,,0.00,WXETH v1.08,2013-02-11 00:48:00,
2013-02-10 20:53:00,73.6,69.0,30.13,North,11,0.0,3.4,86,0.00,,,0.00,WXETH v1.08,2013-02-11 00:53:00,
2013-02-10 20:58:00,73.4,68.7,30.13,NE,45,0.0,4.4,86,0.00,,,0.00,WXETH v1.08,2013-02-11 00:58:00,
2013-02-10 21:03:00,73.5,68.7,30.13,NE,45,0.0,0.0,86,0.00,,,0.00,WXETH v1.08,2013-02-11 01:03:00,
2013-02-10 21:08:00,73.3,68.5,30.13,NE,45,0.0,0.0,86,0.00,,,0.00,WXETH v1.08,2013-02-11 01:08:00,
2013-02-10 21:13:00,73.5,68.7,30.13,NE,45,0.0,0.0,86,0.00,,,0.00,WXETH v1.08,2013-02-11 01:13:00,
2013-02-10 21:18:00,73.4,68.7,30.13,NNW,334,0.0,2.6,86,0.00,,,0.00,WXETH v1.08,2013-02-11 01:18:00,
2013-02-10 21:23:00,73.4,68.7,30.13,NE,50,0.0,3.9,86,0.00,,,0.00,WXETH v1.08,2013-02-11 01:23:00,
2013-02-10 21:28:00,73.2,68.5,30.14,NE,46,0.0,3.3,86,0.00,,,0.00,WXETH v1.08,2013-02-11 01:28:00,
2013-02-10 21:33:00,73.3,68.5,30.14,NE,46,0.0,0.0,86,0.00,,,0.00,WXETH v1.08,2013-02-11 01:33:00,
2013-02-10 21:38:00,73.3,68.5,30.15,East,94,0.0,3.2,86,0.00,,,0.00,WXETH v1.08,2013-02-11 01:38:00,
2013-02-10 21:43:00,73.1,68.5,30.15,East,82,1.1,2.2,86,0.00,,,0.00,WXETH v1.08,2013-02-11 01:43:00,
2013-02-10 21:48:00,73.4,68.7,30.15,East,85,0.5,3.7,86,0.00,,,0.00,WXETH v1.08,2013-02-11 01:48:00,
2013-02-10 21:53:00,73.3,68.5,30.15,SE,146,0.0,2.4,86,0.00,,,0.00,WXETH v1.08,2013-02-11 01:53:00,
2013-02-10 21:58:00,73.2,68.5,30.15,NE,37,2.3,4.1,86,0.00,,,0.00,WXETH v1.08,2013-02-11 01:58:00,
2013-02-10 22:03:00,73.1,68.5,30.15,North,5,0.0,2.4,86,0.00,,,0.00,WXETH v1.08,2013-02-11 02:03:00,
2013-02-10 22:08:00,73.2,68.5,30.15,East,94,0.0,1.6,86,0.00,,,0.00,WXETH v1.08,2013-02-11 02:08:00,
2013-02-10 22:13:00,73.3,68.1,30.15,ESE,112,0.0,1.9,85,0.00,,,0.00,WXETH v1.08,2013-02-11 02:13:00,
2013-02-10 22:18:00,73.3,68.1,30.15,ESE,111,2.2,4.5,85,0.00,,,0.00,WXETH v1.08,2013-02-11 02:18:00,
2013-02-10 22:23:00,73.2,68.1,30.15,SE,146,0.0,3.4,85,0.00,,,0.00,WXETH v1.08,2013-02-11 02:23:00,
2013-02-10 22:28:00,73.2,68.1,30.15,SE,146,0.0,0.3,85,0.00,,,0.00,WXETH v1.08,2013-02-11 02:28:00,
2013-02-10 22:33:00,73.1,68.1,30.16,NNE,14,0.0,2.6,85,0.00,,,0.00,WXETH v1.08,2013-02-11 02:33:00,
2013-02-10 22:38:00,72.9,67.8,30.16,SSE,147,1.6,3.7,85,0.00,,,0.00,WXETH v1.08,2013-02-11 02:38:00,
2013-02-10 22:43:00,73.1,68.1,30.16,ESE,113,0.0,2.1,85,0.00,,,0.00,WXETH v1.08,2013-02-11 02:43:00,
2013-02-10 22:48:00,72.9,68.1,30.16,NE,46,0.0,0.9,86,0.00,,,0.00,WXETH v1.08,2013-02-11 02:48:00,
2013-02-10 22:53:00,72.8,67.8,30.16,NE,46,0.0,0.2,85,0.00,,,0.00,WXETH v1.08,2013-02-11 02:53:00,
2013-02-10 22:58:00,73.0,67.8,30.16,North,2,0.0,6.4,85,0.00,,,0.00,WXETH v1.08,2013-02-11 02:58:00,
2013-02-10 23:03:00,72.8,67.8,30.16,ESE,111,0.0,5.4,85,0.00,,,0.00,WXETH v1.08,2013-02-11 03:03:00,
2013-02-10 23:08:00,73.1,67.8,30.16,East,90,1.4,3.4,84,0.00,,,0.00,WXETH v1.08,2013-02-11 03:08:00,
2013-02-10 23:13:00,73.2,67.8,30.16,East,80,0.0,2.7,84,0.00,,,0.00,WXETH v1.08,2013-02-11 03:13:00,
2013-02-10 23:18:00,73.0,67.6,30.17,SE,142,0.9,5.1,84,0.00,,,0.00,WXETH v1.08,2013-02-11 03:18:00,
2013-02-10 23:23:00,73.1,67.8,30.17,NE,50,0.0,3.5,84,0.00,,,0.00,WXETH v1.08,2013-02-11 03:23:00,
2013-02-10 23:28:00,73.5,68.1,30.16,NE,36,0.0,7.4,84,0.00,,,0.00,WXETH v1.08,2013-02-11 03:28:00,
2013-02-10 23:33:00,73.5,68.1,30.16,East,94,0.0,2.6,84,0.00,,,0.00,WXETH v1.08,2013-02-11 03:33:00,
2013-02-10 23:38:00,73.4,68.1,30.16,SE,137,1.9,3.1,84,0.00,,,0.00,WXETH v1.08,2013-02-11 03:38:00,
2013-02-10 23:43:00,73.2,68.1,30.16,ENE,64,0.0,5.7,85,0.00,,,0.00,WXETH v1.08,2013-02-11 03:43:00,
2013-02-10 23:48:00,73.3,67.8,30.16,ENE,64,0.0,0.0,84,0.00,,,0.00,WXETH v1.08,2013-02-11 03:48:00,
2013-02-10 23:53:00,73.3,67.8,30.16,North,11,0.0,3.0,84,0.00,,,0.00,WXETH v1.08,2013-02-11 03:53:00,
2013-02-10 23:58:00,73.3,67.8,30.16,East,84,0.1,1.9,84,0.00,,,0.00,WXETH v1.08,2013-02-11 03:58:00,